Regional Weather Roundup
Issued by NWS

Home | Current Version | Previous Version | Graphics & Text | Print | Product List | Glossary On
Versions: 1 2 3 4 5 6 7 8 9 10 11 12 13 14 15 16 17 18 19 20 21 22 23 24 25 26 27 28 29 30 31 32 33 34 35 36 37 38 39 40 41 42 43 44 45 46 47 48 49 50
000
ASUS43 KLOT 291800
RWRIL

ILLINOIS REGIONAL WEATHER ROUNDUP
NATIONAL WEATHER SERVICE CHICAGO/ROMEOVILLE IL
100 PM CDT FRI AUG 29 2014

NOTE: "FAIR" INDICATES FEW OR NO CLOUDS BELOW 12,000 FEET WITH NO
SIGNIFICANT WEATHER AND/OR OBSTRUCTIONS TO VISIBILITY.

* THESE STATIONS ARE NOT UNDER NWS QUALITY CONTROL. THEY ALSO MAY NOT
  REPORT WEATHER SUCH AS PRECIPITATION OR FOG.

ILZ001-002-007-009-015-016-024-291900-
NORTHWEST ILLINOIS

CITY           SKY/WX    TMP DP  RH WIND       PRES   REMARKS
MOLINE         SUNNY     84  72  67 S12       29.88F HX  89
6HR MIN TEMP:  71; 6HR MAX TEMP:  84;

STERLING*      MOSUNNY   79  72  78 S6        29.92F HX  82
$$

ILZ003-004-008-010-011-017-018-291900-
NORTH CENTRAL ILLINOIS

CITY           SKY/WX    TMP DP  RH WIND       PRES   REMARKS
ROCKFORD       LGT RAIN  77  70  79 S12       29.95S
6HR MIN TEMP:  69; 6HR MAX TEMP:  80; 6HR PCP:  0.02;

$$

ILZ005-006-012>014-019>023-291900-
NORTHEAST ILLINOIS

CITY           SKY/WX    TMP DP  RH WIND       PRES   REMARKS
CHICAGO-OHARE  PTSUNNY   84  69  60 SW12      29.95F HX  88
6HR MIN TEMP:  71; 6HR MAX TEMP:  84;

CHICAGO-MIDWAY PTSUNNY   84  73  69 SW14      29.95F HX  90
6HR MIN TEMP:  73; 6HR MAX TEMP:  85;

AURORA         PTSUNNY   82  72  71 S9        29.95F HAZE    HX  87
6HR MIN TEMP:  70; 6HR MAX TEMP:  82;

WAUKEGAN       MOSUNNY   80  71  74 VRB7      29.94F HX  84
6HR MIN TEMP:  70; 6HR MAX TEMP:  80; 6HR PCP:  0.10;

DUPAGE AIRPORT PTSUNNY   83  72  69 S13       29.95F HX  88
6HR MIN TEMP:  70; 6HR MAX TEMP:  84;

WHEELING       PTSUNNY   84  71  65 S13       29.96F HX  89
6HR MIN TEMP:  72; 6HR MAX TEMP:  85;

NORTHERLY ISL    N/A     82  69  64 S8          N/A  HX  85
$$

LMZ740>746-291900-
SOUTHERN LAKE MICHIGAN

STATION/POSITION SKY/WX   TEMP    WIND        PRES    VSBY  WAVE
                          AIR SEA DIR/SP/G                  HT/PER
                          (F)     (DEG/KT/KT) (MB)    (MI)  (FT/S)
SOUTHERN BUOY              70 69  180/ 12/ 14 1015.4S         4/ 5
WAUKEGAN HARBOR            76     150/ 11/ 12   N/A
HARRISON CRIB              75     140/ 11/ 13   N/A
BURNHAM HARBOR             82     210/  7/ 15   N/A
CALUMET HARBOR             80     170/ 10/ 17 1013.5F
MICHIGAN CITY              77     160/ 14/ 19   N/A
MICHIGAN CITY 6N           75 71  170/ 10/ 14   N/A           1/ 2
ST. JOSEPH                 74 71  170/ 12/ 16   N/A           1/ 3
$$

ILZ025>027-034>036-040-047-049-050-058-095>099-291900-
WEST-CENTRAL ILLINOIS

CITY           SKY/WX    TMP DP  RH WIND       PRES   REMARKS
QUINCY         SUNNY     87  65  47 S12       29.89F HX  89
MACOMB*        MOSUNNY   84  71  63 S10G16    29.93F HX  89
$$

ILZ028>032-037-038-041>044-048-051>054-059>061-291900-
CENTRAL ILLINOIS

CITY           SKY/WX    TMP DP  RH WIND       PRES   REMARKS
DECATUR        PTSUNNY   86  74  67 SW8       29.96F HX  94
PEORIA         MOSUNNY   84  72  67 S10       29.93F HX  89
6HR MIN TEMP:  73; 6HR MAX TEMP:  84; 6HR PCP:  0.04;

SPRINGFIELD    MOSUNNY   84  72  67 S7        29.94F HX  89
6HR MIN TEMP:  73; 6HR MAX TEMP:  87; 6HR PCP:  0.01;

TAYLORVILLE    NOT AVBL
$$

ILZ033-039-045-046-055>057-062-063-291900-
EAST-CENTRAL ILLINOIS

CITY           SKY/WX    TMP DP  RH WIND       PRES   REMARKS
CHAMPAIGN      PTSUNNY   82  74  76 S7        29.98F HX  88
MATTOON        MOSUNNY   84  75  74 S8        29.97F HX  92
$$

ILZ079-100>102-291900-
SOUTHWEST ILLINOIS

CITY           SKY/WX    TMP DP  RH WIND       PRES   REMARKS
ALTON          PTSUNNY   86  72  62 S9        29.94F HX  92
BELLEVILLE     MOSUNNY   87  75  67 VRB6      29.93F HX  97
CAHOKIA*       SUNNY     89  67  47 SE7       29.92F HX  92
$$

ILZ064>066-069>071-074>076-080>082-084>086-088>090-092>094-291900-
SOUTH-CENTRAL ILLINOIS

CITY           SKY/WX    TMP DP  RH WIND       PRES   REMARKS
CARBONDALE     PTSUNNY   88  73  61 SW8       29.96F HX  95
6HR MIN TEMP:  68; 6HR MAX TEMP:  88;

MARION         PTSUNNY   88  72  58 S12       29.98F HX  94
MT. VERNON     PTSUNNY   88  73  62 S6        29.97F HX  96
$$

ILZ067-068-072-073-078-083-087-091-291900-
SOUTHEAST ILLINOIS

CITY           SKY/WX    TMP DP  RH WIND       PRES   REMARKS
LAWRENCEVILLE  MOSUNNY   88  74  63 SE7       29.98F HX  96
ROBINSON*      MOSUNNY   90  76  64 S10       29.99F HX 102
$$

ABBREVIATIONS USED IN REMARKS
   TC - TEMPERATURE IN CELSIUS
  WCI - WIND CHILL INDEX
   HX - HEAT INDEX
  VSB - VISIBILITY
$$



USA.gov is the U.S. government's official web portal to all federal, state and local government web resources and services.